Location: Napier
(39.4830°S, 176.9170°E)
Time: 02:44:31
(UTC+13:00)

Cosmos 1805 Rocket - Pass Details

Date: 24 January 2019
Orbit: 607 x 629 km, 82.5° (Epoch: 15 February)

Event Time Altitude Azimuth Distance (km) Brightness Sun altitude
Rises 21:11:10 0° 193° (SSW) 2,910 7.8 -6.8°
Reaches altitude 10° 21:13:27 10° 197° (SSW) 1,995 7.0 -7.1°
Maximum altitude 21:17:45 55° 273° (W) 745 4.3 -7.8°
Drops below altitude 10° 21:22:00 10° 351° (N) 1,964 5.9 -8.5°
Sets 21:24:14 0° 355° (N) 2,860 6.7 -8.9°
